sat.trackr.live / text

‹ back to catalog

STARLINK-34233

NORAD 64172 · 2025-113C

PAYLOAD ACTIVE UNKNOWN

§ Identity

Operator
Country
US
Launch date
2025-05-28
Launch site
AFETR
Launch vehicle
Mass (kg)
RCS (m²)

Purposes: comms

External: N2YO · Heavens-Above · Gunter

§ Orbital elements

Epoch: 2026-05-25T03:45:53.087616Z

Period
94.01 min
Inclination
53.1571°
Eccentricity
0.0001110
Mean motion
15.31707222 rev/d
Perigee alt
470.0 km
Apogee alt
471.5 km
Semi-major
6,848.9 km
B*
4.8217e-4
RAAN
95.8761°
Arg perigee
82.6843°
Mean anomaly
277.4284°
Rev number
5,677

§ Raw data

STARLINK-342331 64172U 25113C   26145.15686444  .00014630  00000+0  48217-3 0  99962 64172  53.1571  95.8761 0001110  82.6843 277.4284 15.31707222 56773

JSON: /api/v1/satellites/64172 · /tle

For live sub-satellite position, see the globe view (requires WebGL).

§ Visibility from observer

Set your observer location to see the next 7 days of passes ≥ 10°. The values pass through the URL so the page stays shareable.

No JS? Fill the form by hand. The geolocation button needs JavaScript.